Regional Weather Roundup
Issued by NWS Newport/Morehead, NC

Current Version | Previous Version | Graphics & Text | Print | Product List | Glossary Off
Versions: 1 2 3 4 5 6 7 8 9 10 11 12 13 14 15 16 17 18 19 20 21 22 23 24 25 26 27 28 29 30 31 32 33 34 35 36 37 38 39 40 41 42 43 44 45 46 47 48 49 50

000
ASUS42 KMHX 081813
RWRMHX
WEATHER ROUNDUP FOR EASTERN NORTH CAROLINA
NATIONAL WEATHER SERVICE NEWPORT/MOREHEAD CITY NC
100 PM EST MON FEB 08 2016

NOTE: "FAIR" INDICATES FEW OR NO CLOUDS BELOW 12,000 FEET
WITH NO SIGNIFICANT WEATHER AND/OR OBSTRUCTIONS TO VISIBILITY

NCZ015>017-031-032-045>047-102-103-081900-
NORTH COAST

CITY           SKY/WX    TMP DP  RH WIND       PRES   REMARKS
EDENTON        SUNNY     49  31  49 W6        29.75F
ELIZABETH CITY SUNNY     49  33  54 NE3       29.74F
KITTY HAWK     PTCLDY    51  34  52 CALM      29.73F
MANTEO         SUNNY     45  33  64 N7        29.76F

$$

NCZ045>047-081-094-103-104-081900-
CENTRAL COAST

CITY           SKY/WX    TMP DP  RH WIND       PRES   REMARKS
FRISCO         SUNNY     48  33  56 W7        29.77F
SWANQUARTER      N/A     48 N/A N/A W7G14     29.74S

$$

NCZ095-097-098-100-101-081900-
SOUTHERN COAST

CITY           SKY/WX    TMP DP  RH WIND       PRES   REMARKS
BEAUFORT       SUNNY     50  33  52 S12       29.78F
CEDAR ISLAND     N/A     48 N/A N/A W8        29.79F
JACKSONVILLE   SUNNY     52  29  41 E9        29.77F
PINEY ISLAND   CLEAR    N/A N/A N/A VRB6      29.76F
WILMINGTON     SUNNY     54  34  46 SE10      29.78F


$$

NCZ011>013-027>030-043-044-078>080-089-090>093-098-081900-
COASTAL PLAIN

CITY           SKY/WX    TMP DP  RH WIND       PRES   REMARKS
AHOSKIE        MOSUNNY   48  23  37 CALM      29.74F
CLINTON        SUNNY     55  33  44 SW6       29.76F
ELIZABETHTOWN  SUNNY     55  30  38 SW13      29.77F
GOLDSBORO      SUNNY     54  30  40 SW10      29.73F
GREENVILLE     SUNNY     52  30  43 SW5       29.78F
HAVELOCK       SUNNY     53  29  39 SW13      29.78F
KENANSVILLE      N/A     53  28  37 CALM      29.77F
KINSTON        SUNNY     52  27  37 SW5       29.76F
NEW BERN       SUNNY     53  29  39 W5        29.77F
RICHLANDS      SUNNY     54  30  40 S7        29.77F
ROCKY MOUNT    SUNNY     52  30  43 S9        29.74F
WASHINGTON     SUNNY     50  29  44 CALM      29.76F
WHITEVILLE     SUNNY     55  30  38 S12G20    29.77F

$$

AMZ130-135-150-152-154-156-158-170-250-252-270-ANZ085-086-088-633-658-670-081900-
MARINE OBSERVATIONS

STATION/POSITION TIME  TEMP    WIND        PRES    WAVE   SWELL
                       AIR SEA DIR/SP/G            HT/PER HT/PER
                 (UTC) (F)     (DEG/KT/KT) (MB)    (FT/S) (FT/S)
CHESAPEAKE LIGHT 1800   41      20/ 10/ 11 1007.6
64 E VA BEACH    1750   44 52  330/ 17/ 23 1005.8   17/14  16/14
DUCK             1700   42     350/  8/ 10 1007.3
2 E DUCK         1711      44                N/A    10/13   8/13
OREGON INLET     1700   44 45  310/  8/ 12 1008.1
13E OREGON INLT  1800      47                N/A    19/15  16/15
HATTERAS CG      1700   43 50  290/ 10/ 12 1008.2
DIAMOND BUOY     1750   44 52  310/ 10/ 12 1008.4   14/15  13/15
CAPE LOOKOUT     NOT AVBL
BEAUFORT LAB     1700   49 46  240/  3/  8 1008.2
30 SE NEW RVR IN 1708   50 60              1009.8
30 SE NEW RVR IN 1725      60                N/A     6/13   5/13
27 SE WRIGHTSVLE 1708   52 60  260/  4/  8 1010.4
5 SE WRIGHTSVLE  1708   47 52  190/  8/ 10 1010.3
225 S CAPE HAT   1750   59 69  290/ 19/ 23   N/A    15/11  11/11
41 SE CHARLESTON 1750   57 65  230/ 17/ 23 1010.1    6/15   3/15

$$




USA.gov is the U.S. government's official web portal to all federal, state and local government web resources and services.